{"data":{"norad_id":57351,"intl_designator":"2023-099Z","name":"STARLINK-6331","alt_names":[],"object_type":"PAYLOAD","status":"ACTIVE","operator":null,"country":"US","launch_date":"2023-07-16","launch_site_code":"AFETR","launch_vehicle":null,"mission":null,"orbit_class":"UNKNOWN","rcs_meters":null,"size_class":null,"mass_kg":null,"dimensions":null,"purposes":["comms"],"wikipedia_slug":null,"has_3d_model":false,"image_url":null,"decayed_at":null,"tle_current":{"epoch":"2026-05-24T19:43:13.235808Z","epoch_age_seconds":86640,"freshness":"FRESH","line1":"1 57351U 23099Z   26144.82168097  .00000479  00000+0  26944-4 0  9990","line2":"2 57351  43.0037 178.7078 0001791 283.2354  76.8298 15.27577884157763","mean_motion":15.27577884,"eccentricity":0.0001791,"inclination_deg":43.0037,"raan_deg":178.7078,"arg_perigee_deg":283.2354,"mean_anomaly_deg":76.8298,"bstar":2.6944e-5,"rev_number":15776,"period_min":94.266879291897,"perigee_km":481.8265925476,"apogee_km":484.28427167679,"semimajor_km":6861.1924321122,"source":"CELESTRAK","updated_at":"2026-05-25T13:38:18.290517Z"}}}